This demonstration page uses our WeatherBlox Daily Observations layout. Learn more.

Left ArrowRight Arrow

39.51506, -84.39828

Hourly Observations for March 30, 2018

Temp ( °F °C ) Dew Point ( °F °C ) Humidity (%) Winds ( mph kmh ) Pressure ( in mb ) Visibility ( mi km ) Precip ( " mm )
12:15 am 00:15 Cloudy 44 6.5 41 5.2 92 92 NNE 10 17 29.88 1012 10 16.0934 N/A
12:35 am 00:35 Cloudy 44 6.5 41 5.1 91 91 N 13 20 29.88 1012 10 16.0934 N/A
12:55 am 00:55 Cloudy with Rain 44 6.5 41 5 90 90 N 10 17 29.91 1013 10 16.0934 0.01 0.254
1:15 am 01:15 Cloudy with Rain 43 6.3 41 5.2 93 93 N 7 11 29.91 1013 7 11.26538 0.05 1.27
1:35 am 01:35 Cloudy with Rain 43 6.2 41 4.9 91 91 N 12 19 29.91 1013 10 16.0934 0.1 2.54
1:55 am 01:55 Cloudy with Light Rain 43 6.1 40 4.4 89 89 NNE 13 20 29.94 1014 10 16.0934 0.11 2.794
2:15 am 02:15 Cloudy with Rain 43 6 40 4.7 91 91 N 10 17 29.94 1014 10 16.0934 0.01 0.254
2:35 am 02:35 Cloudy with Light Rain 43 6 40 4.3 89 89 NNE 12 19 29.94 1014 10 16.0934 0.01 0.254
2:55 am 02:55 Cloudy with Rain 42 5.7 40 4.2 90 90 NNE 12 19 29.94 1014 10 16.0934 0.03 0.762
3:15 am 03:15 Cloudy with Light Rain 42 5.7 39 4 89 89 NNE 10 17 29.94 1014 10 16.0934 0.01 0.254
3:35 am 03:35 Cloudy 42 5.6 39 4 90 90 NNE 13 20 29.91 1013 10 16.0934 0.01 0.254
3:55 am 03:55 Cloudy 42 5.7 39 3.9 88 88 NNE 10 17 29.91 1013 10 16.0934 0.01 0.254
4:15 am 04:15 Cloudy 42 5.7 39 4.1 90 90 N 8 13 29.94 1014 10 16.0934 N/A
4:35 am 04:35 Cloudy 42 5.7 40 4.4 91 91 NNW 7 11 29.94 1014 10 16.0934 N/A
4:55 am 04:55 Cloudy 42 5.8 40 4.3 90 90 N 6 9 29.94 1014 10 16.0934 N/A
5:15 am 05:15 Cloudy 42 5.8 40 4.2 90 90 N 7 11 29.97 1015 10 16.0934 N/A
5:35 am 05:35 Cloudy 42 5.8 39 4.1 89 89 N 10 17 29.97 1015 10 16.0934 N/A
5:55 am 05:55 Cloudy with Light Rain 42 5.8 40 4.2 90 90 N 7 11 29.97 1015 10 16.0934 N/A
6:15 am 06:15 Cloudy with Light Rain 42 5.7 40 4.3 91 91 NW 5 7 30 1016 10 16.0934 N/A
6:35 am 06:35 Cloudy with Light Rain 42 5.8 40 4.6 92 92 NNW 5 7 30 1016 10 16.0934 N/A
6:55 am 06:55 Cloudy with Light Rain 42 5.8 40 4.6 92 92 NNW 5 7 30 1016 7 11.26538 N/A
7:15 am 07:15 Cloudy with Light Rain 42 5.8 40 4.6 92 92 NNW 6 9 30.03 1017 7 11.26538 N/A
7:35 am 07:35 Cloudy with Light Rain 42 5.7 40 4.6 93 93 NW 6 9 30.03 1017 5 8.0467 N/A
7:55 am 07:55 Cloudy with Light Rain 42 5.7 40 4.6 93 93 NW 3 6 30.06 1018 4 6.43736 N/A
8:15 am 08:15 Cloudy with Light Rain 42 5.7 41 4.8 94 94 NW 5 7 30.06 1018 4 6.43736 0.01 0.254
8:35 am 08:35 Cloudy with Light Rain 43 5.9 41 4.9 93 93 N N/A 30.06 1018 3.5 5.63269 0.02 0.508
8:55 am 08:55 Cloudy with Light Rain 43 6 41 5.2 95 95 W 3 6 30.09 1019 4 6.43736 0.02 0.508
9:15 am 09:15 Cloudy with Light Rain 43 6.1 41 5.2 94 94 NNW 5 7 30.09 1019 4 6.43736 0.01 0.254
9:35 am 09:35 Cloudy with Light Rain 44 6.4 41 5 91 91 NW 8 13 30.12 1020 5 8.0467 0.01 0.254
9:55 am 09:55 Cloudy with Light Rain 44 6.4 41 5 91 91 NW 8 13 30.12 1020 5 8.0467 0.02 0.508
10:15 am 10:15 Cloudy with Light Rain 44 6.4 40 4.6 88 88 NNW 8 13 30.12 1020 7 11.26538 0.01 0.254
10:35 am 10:35 Cloudy with Light Rain 44 6.7 41 5.1 90 90 NNW 7 11 30.15 1021 7 11.26538 0.01 0.254
10:55 am 10:55 Cloudy with Light Rain 44 6.6 41 5 90 90 NW 6 9 30.15 1021 7 11.26538 0.01 0.254
11:15 am 11:15 Cloudy 45 7 42 5.4 90 90 NW 3 6 30.15 1021 10 16.0934 N/A
11:35 am 11:35 Cloudy 43 6.1 41 4.8 91 91 NNW 12 19 30.18 1022 7 11.26538 N/A
11:55 am 11:55 Cloudy with Mist and Fog 42 5.8 40 4.6 92 92 NNW 9 15 30.18 1022 5 8.0467 N/A
12:15 pm 12:15 Cloudy with Mist and Fog 42 5.4 40 4.4 93 93 NNW 9 15 30.18 1022 4 6.43736 N/A
12:35 pm 12:35 Cloudy with Mist and Fog 41 5.2 39 4.1 93 93 N 8 13 30.18 1022 3.5 5.63269 N/A
12:55 pm 12:55 Cloudy 42 5.4 39 3.9 90 90 N 5 7 30.18 1022 7 11.26538 N/A
1:15 pm 13:15 Cloudy 43 6.1 39 4 87 87 N N/A 30.18 1022 10 16.0934 N/A
1:35 pm 13:35 Cloudy 43 6.3 39 3.7 84 84 NNW 6 9 30.18 1022 10 16.0934 N/A
1:55 pm 13:55 Cloudy 44 6.4 38 3.1 80 80 NW 7 11 30.18 1022 10 16.0934 N/A
2:15 pm 14:15 Cloudy 44 6.4 37 2.5 76 76 W 3 6 30.18 1022 10 16.0934 N/A
2:35 pm 14:35 Cloudy 44 6.9 36 2.1 72 72 WNW 5 7 30.18 1022 10 16.0934 N/A
2:55 pm 14:55 Cloudy 45 7.3 34 0.9 64 64 W 5 7 30.18 1022 10 16.0934 N/A
3:15 pm 15:15 Cloudy 45 7.4 33 0.3 61 61 W 3 6 30.18 1022 10 16.0934 N/A
3:35 pm 15:35 Cloudy 46 7.7 33 0.7 62 62 W 7 11 30.21 1023 10 16.0934 N/A
3:55 pm 15:55 Cloudy 47 8.1 31 -0.6 55 55 WSW 8 13 30.21 1023 10 16.0934 N/A
4:15 pm 16:15 Cloudy 47 8.2 33 0.4 58 58 WSW 7 11 30.21 1023 10 16.0934 N/A
4:35 pm 16:35 Partly Cloudy 48 9.1 33 0.6 56 56 W 6 9 30.18 1022 10 16.0934 N/A
4:55 pm 16:55 Sunny 49 9.3 33 0.4 54 54 SSW 5 7 30.21 1023 10 16.0934 N/A
5:15 pm 17:15 Sunny 49 9.2 33 0.3 54 54 SSW 7 11 30.18 1022 10 16.0934 N/A
5:35 pm 17:35 Sunny 50 10.1 33 0.8 53 53 WSW 9 15 30.18 1022 10 16.0934 N/A
5:55 pm 17:55 Partly Cloudy 50 9.9 34 1 54 54 SW 10 17 30.21 1023 10 16.0934 N/A
6:15 pm 18:15 Partly Cloudy 49 9.4 33 0.7 55 55 SW 9 15 30.21 1023 10 16.0934 N/A
6:35 pm 18:35 Sunny 49 9.4 33 0.6 55 55 WSW 8 13 30.21 1023 10 16.0934 N/A
6:55 pm 18:55 Sunny 49 9.2 33 0.6 55 55 WSW 9 15 30.21 1023 10 16.0934 N/A
7:15 pm 19:15 Partly Cloudy 47 8.6 33 0.5 57 57 WSW 7 11 30.21 1023 10 16.0934 N/A
7:35 pm 19:35 Sunny 46 8 33 0.7 60 60 WSW 8 13 30.21 1023 10 16.0934 N/A
7:55 pm 19:55 Sunny 44 6.5 33 0.7 67 67 WSW 6 9 30.21 1023 10 16.0934 N/A
8:15 pm 20:15 Clear 42 5.7 33 0.6 70 70 WSW 5 7 30.21 1023 10 16.0934 N/A
8:35 pm 20:35 Clear 41 4.8 36 2 82 82 N N/A 30.24 1024 10 16.0934 N/A
8:55 pm 20:55 Clear 40 4.3 36 2.3 87 87 N N/A 30.27 1025 10 16.0934 N/A
9:15 pm 21:15 Clear 37 2.9 35 1.8 93 93 N N/A 30.27 1025 10 16.0934 N/A
9:35 pm 21:35 Clear 36 2.4 35 1.6 95 95 N N/A 30.27 1025 10 16.0934 N/A
9:55 pm 21:55 Clear 37 2.8 36 2.1 95 95 N N/A 30.27 1025 10 16.0934 N/A
10:15 pm 22:15 Clear 35 1.9 34 1.2 95 95 N N/A 30.27 1025 10 16.0934 N/A
10:35 pm 22:35 Clear 36 2 35 1.7 98 98 N N/A 30.3 1026 10 16.0934 N/A
10:55 pm 22:55 Clear 33 0.4 32 undefined 97 97 N N/A 30.3 1026 10 16.0934 N/A
11:15 pm 23:15 Clear 35 1.4 33 0.8 96 96 N N/A 30.3 1026 10 16.0934 N/A
11:35 pm 23:35 Clear 33 0.8 33 0.3 97 97 N 3 6 30.3 1026 10 16.0934 N/A
11:55 pm 23:55 Clear 33 0.3 32 undefined 98 98 N N/A 30.3 1026 7 11.26538 N/A

Powered by AerisWeather